[[{"header":{"parameterUnit":"m.s-1","parameterCategory":1,"la1":30.2991,"la2":30.254,"lo1":-89.0895,"lo2":-89.0444,"dy":0.0017,"dx":0.0017,"nx":28,"ny":28,"refTime":"2024-05-03T21:00:00:Z","depth":0,"parameterNumber":2,"parameterNumberName":"U-component_of_WINDS"},"data":[0,0,0,0,0,0,0,0,0,0,0,0,0,0,0,0,0,0,0,0,0,0,0,0,0,0,0,0,0,0,0,0,0,0,0,0,0,0,0,0,0,0,0,0,0,0,0,0,0,0,0,0,0,0,0,0,0,0,-0.9386,-0.9386,0,-0.9353,-0.9352,-0.9352,-0.9313,-0.9313,-0.9312,-0.9311,-0.9276,-0.9275,-0.9275,0,0,0,0,0,0,0,0,0,0,0,0,0,-0.9416,-0.9416,-0.9386,-0.9386,-0.9385,-0.9353,-0.9352,-0.9352,-0.9313,-0.9313,-0.9312,-0.9311,-0.9276,-0.9275,-0.9275,0,0,0,0,0,0,0,0,0,0,0,0,0,-0.9395,-0.9416,-0.9386,-0.9362,-0.936,-0.9353,-0.9352,-0.9352,-0.9313,-0.9313,-0.9312,-0.9311,-0.9276,-0.9275,-0.9275,-0.9288,0,0,-0.9273,-0.9273,0,0,0,0,0,0,0,0,-0.9396,-0.9394,-0.9366,-0.9364,-0.9361,-0.9336,-0.935,-0.933,-0.9314,-0.9331,-0.9311,-0.931,-0.9296,-0.9294,-0.929,-0.9287,-0.9285,-0.9273,-0.9272,-0.9272,-0.9272,0,0,0,0,0,0,0,-0.9398,-0.9395,-0.9373,-0.9366,-0.9363,-0.9353,-0.9349,-0.9346,-0.9319,-0.9329,-0.9326,-0.9323,-0.9295,-0.929,-0.9288,-0.9285,-0.9273,-0.9272,-0.9272,-0.9272,-0.9292,-0.9293,0,0,0,0,0,0,-0.9403,-0.9397,-0.9374,-0.9372,-0.9377,-0.9353,-0.9349,-0.9345,-0.9319,-0.9314,-0.9324,-0.9321,-0.9292,-0.9289,-0.9287,-0.9302,-0.9272,-0.9272,-0.9271,-0.9291,-0.9292,-0.9293,0,0,0,0,0,0,-0.9404,-0.9401,-0.9375,-0.9384,-0.9379,-0.9354,-0.935,-0.9345,-0.934,-0.9315,-0.931,-0.9324,-0.9291,-0.9288,-0.9289,-0.93,-0.9271,-0.9271,-0.929,-0.9291,-0.9292,-0.9331,0,0,0,0,0,0,-0.9405,-0.9402,-0.9407,-0.9384,-0.9379,-0.9378,-0.9351,-0.9345,-0.934,-0.9336,-0.9314,-0.9309,-0.929,-0.929,-0.9288,-0.9298,-0.927,-0.9289,-0.929,-0.9292,-0.9328,-0.9333,-0.9337,0,0,0,0,0,-0.9406,-0.9419,-0.9407,-0.9405,-0.9385,-0.9378,-0.9376,-0.9354,-0.9341,-0.9345,-0.9329,-0.931,-0.9299,-0.929,-0.9288,-0.9298,-0.9288,-0.929,-0.9292,-0.9326,-0.9332,-0.9337,0,0,0,0,0,0,-0.9443,-0.9415,-0.9402,-0.9408,-0.9396,-0.9372,-0.9377,-0.9361,-0.9352,-0.9349,-0.9322,-0.9317,-0.9321,-0.931,-0.93,-0.931,-0.9291,-0.9292,-0.9318,-0.9323,-0.9328,-0.933,-0.927,0,0,0,0,0,-0.9452,-0.9449,-0.9425,-0.9432,-0.9427,-0.9403,-0.94,-0.9384,-0.937,-0.9365,-0.9348,-0.9336,-0.9329,-0.9325,-0.9318,-0.9327,-0.9321,-0.9333,-0.9337,-0.9341,-0.9343,-0.9347,-0.9352,-0.93,-0.93,-0.9299,0,0,-0.947,-0.9454,-0.9454,-0.9439,-0.9428,-0.9426,-0.9399,-0.9398,-0.9396,-0.9364,-0.9364,-0.9352,-0.9336,-0.9341,-0.9342,-0.9331,-0.9356,-0.9344,-0.9347,-0.9347,-0.935,-0.9355,-0.9359,-0.9301,-0.9301,-0.93,0,0,-0.9502,-0.949,-0.9495,-0.9484,-0.9468,-0.9453,-0.9454,-0.9433,-0.9423,-0.9423,-0.94,-0.9397,-0.9386,-0.9376,-0.9369,-0.9398,-0.9381,-0.9397,-0.942,-0.9425,-0.9429,-0.9432,-0.9443,-0.9447,-0.9399,-0.9399,-0.9399,0,-0.9526,-0.9522,-0.9499,-0.95,-0.9494,-0.9466,-0.9471,-0.9462,-0.9444,-0.9441,-0.9429,-0.9416,-0.9403,-0.9405,-0.9413,-0.9408,-0.9409,-0.9399,-0.943,-0.9434,-0.9437,-0.9446,-0.945,-0.9401,-0.9401,-0.94,-0.94,0,-0.9553,-0.9551,-0.9557,-0.9541,-0.9536,-0.9538,-0.9516,-0.9513,-0.9498,-0.9484,-0.9484,-0.9468,-0.9457,-0.9457,-0.9442,-0.9457,-0.9451,-0.9435,-0.9415,-0.9444,-0.9453,-0.9456,-0.9404,-0.9403,-0.9402,-0.9402,0,0,-0.9606,-0.9579,-0.9581,-0.9574,-0.9555,-0.9552,-0.9554,-0.9544,-0.9543,-0.9531,-0.9532,-0.9524,-0.951,-0.9503,-0.9486,-0.949,-0.9515,-0.9474,-0.9473,-0.9482,-0.9531,-0.9543,-0.9548,-0.9503,-0.9504,-0.9504,-0.9532,0,-0.9635,-0.9636,-0.9616,-0.9623,-0.9621,-0.9595,-0.9596,-0.9584,-0.9571,-0.9567,-0.9552,-0.9548,-0.9529,-0.9524,-0.9527,-0.9511,-0.9524,-0.9509,-0.9503,-0.9503,-0.9508,-0.9552,-0.9565,-0.9592,-0.9536,-0.9536,-0.9537,0,-0.9668,-0.966,-0.9667,-0.9648,-0.9646,-0.9647,-0.9637,-0.9634,-0.962,-0.961,-0.9602,-0.9584,-0.9584,-0.9565,-0.9565,-0.9555,-0.9551,-0.9543,-0.9544,-0.9543,-0.9522,-0.9552,-0.96,-0.9605,-0.9542,-0.9541,-0.9541,0,-0.9707,-0.9697,-0.97,-0.9695,-0.9672,-0.9674,-0.9665,-0.965,-0.9646,-0.9637,-0.9634,-0.9625,-0.962,-0.9613,-0.9593,-0.9581,-0.9595,-0.9574,-0.9587,-0.9588,-0.9591,-0.9591,-0.964,-0.9589,-0.9589,-0.9589,-0.9589,0,-0.9741,-0.9746,-0.9717,-0.9719,-0.9725,-0.9701,-0.9707,-0.9695,-0.9683,-0.9682,-0.9659,-0.9658,-0.9631,-0.9628,-0.9612,-0.9615,-0.9612,-0.9604,-0.96,-0.9606,-0.9608,-0.9604,-0.9601,-0.959,-0.959,-0.9589,-0.9589,0,-0.9785,-0.9766,-0.9768,-0.9747,-0.9742,-0.9746,-0.9728,-0.9729,-0.9715,-0.9714,-0.9713,-0.969,-0.9685,-0.9664,-0.9654,-0.9643,-0.9651,-0.9642,-0.9656,-0.9653,-0.9667,-0.9666,-0.9715,-0.972,-0.9666,-0.9666,-0.9667,0,-0.9808,-0.9811,-0.9791,-0.9789,-0.9781,-0.9778,-0.9774,-0.9751,-0.9748,-0.9733,-0.9736,-0.9729,-0.9722,-0.9715,-0.9697,-0.9689,-0.9681,-0.9698,-0.9679,-0.9686,-0.9681,-0.9681,-0.9682,-0.9702,-0.9703,-0.9704,-0.9704,0,-0.9851,-0.9841,-0.9836,-0.9828,-0.9824,-0.9816,-0.9807,-0.9807,-0.9782,-0.9779,-0.9774,-0.9769,-0.9758,-0.9752,-0.9741,-0.9731,-0.9714,-0.971,-0.9713,-0.972,-0.9727,-0.9724,-0.9667,-0.9709,-0.9709,-0.9708,-0.9708,-0.9708,-0.9885,-0.9887,-0.9874,-0.9869,-0.986,-0.9852,-0.9852,-0.9838,-0.9834,-0.9824,-0.9811,-0.9808,-0.9794,-0.9778,-0.977,-0.9767,-0.9757,-0.976,-0.9761,-0.9763,-0.9766,-0.9728,-0.9765,-0.9764,-0.9764,-0.9764,-0.9764,0,-0.9927,-0.9917,-0.9913,-0.9902,-0.9898,-0.9882,-0.9872,-0.987,-0.9867,-0.9856,-0.9851,-0.9845,-0.9839,-0.9821,-0.9813,-0.9814,-0.9806,-0.9813,-0.9812,-0.981,-0.9775,-0.9774,-0.9819,-0.9819,-0.9819,-0.9819,-0.9819,-0.9819,-0.9948,-0.9952,-0.9941,-0.9939,-0.9929,-0.9926,-0.9922,-0.9915,-0.9906,-0.9901,-0.9896,-0.9884,-0.9871,-0.9862,-0.9856,-0.9851,-0.9849,-0.9858,-0.9851,-0.9818,-0.9813,-0.9808,-0.9806,-0.9858,-0.9858,-0.9886,-0.9887,-0.9887]},{"header":{"parameterUnit":"m.s-1","parameterCategory":1,"la1":30.2991,"la2":30.254,"lo1":-89.0895,"lo2":-89.0444,"dy":0.0017,"dx":0.0017,"nx":28,"ny":28,"refTime":"2024-05-03T21:00:00:Z","depth":0,"parameterNumber":3,"parameterNumberName":"V-component_of_WINDS"},"data":[0,0,0,0,0,0,0,0,0,0,0,0,0,0,0,0,0,0,0,0,0,0,0,0,0,0,0,0,0,0,0,0,0,0,0,0,0,0,0,0,0,0,0,0,0,0,0,0,0,0,0,0,0,0,0,0,0,0,3.2314,3.2314,0,3.2332,3.2332,3.2333,3.2306,3.2305,3.2304,3.2303,3.2319,3.2321,3.2322,0,0,0,0,0,0,0,0,0,0,0,0,0,3.2254,3.2255,3.2314,3.2314,3.2315,3.2332,3.2333,3.2333,3.2306,3.2305,3.2304,3.2303,3.2319,3.2321,3.2322,0,0,0,0,0,0,0,0,0,0,0,0,0,3.2277,3.2256,3.2314,3.2303,3.2303,3.2332,3.2333,3.2333,3.2306,3.2305,3.2304,3.2302,3.2319,3.232,3.2322,3.2362,0,0,3.2328,3.2329,0,0,0,0,0,0,0,0,3.2276,3.2279,3.2305,3.2304,3.2303,3.2316,3.2317,3.2343,3.2307,3.2305,3.2303,3.2302,3.2319,3.2321,3.2327,3.2363,3.2364,3.2328,3.233,3.233,3.2331,0,0,0,0,0,0,0,3.2274,3.2278,3.2321,3.2305,3.2304,3.2297,3.2299,3.2322,3.232,3.2305,3.2303,3.2306,3.2318,3.2326,3.2327,3.2364,3.2328,3.233,3.2331,3.2332,3.2434,3.2435,0,0,0,0,0,0,3.2274,3.2277,3.2321,3.2322,3.2286,3.2299,3.2301,3.2313,3.2319,3.2319,3.2307,3.2305,3.2323,3.2325,3.2328,3.2375,3.233,3.2332,3.2333,3.2432,3.2434,3.2436,0,0,0,0,0,0,3.2273,3.2278,3.232,3.2299,3.2304,3.2302,3.2315,3.2314,3.2321,3.2321,3.232,3.2315,3.2322,3.2325,3.2354,3.2376,3.2333,3.2335,3.243,3.2433,3.2435,3.2471,0,0,0,0,0,0,3.2271,3.2278,3.2294,3.23,3.2305,3.2346,3.2317,3.2315,3.2325,3.2322,3.2328,3.2327,3.2321,3.2351,3.2356,3.2377,3.2336,3.2428,3.2431,3.2434,3.2467,3.2474,3.2479,0,0,0,0,0,3.2269,3.2302,3.2295,3.23,3.2324,3.2348,3.2351,3.2343,3.2327,3.2342,3.2342,3.2327,3.2373,3.2355,3.236,3.2382,3.2427,3.2431,3.2434,3.2465,3.2472,3.2479,0,0,0,0,0,0,3.2297,3.2303,3.2294,3.233,3.2339,3.2343,3.2362,3.2352,3.2365,3.2361,3.2351,3.2352,3.2383,3.2385,3.2365,3.2421,3.2397,3.2402,3.2419,3.2426,3.2432,3.243,3.2338,0,0,0,0,0,3.2308,3.2327,3.2331,3.2362,3.2367,3.2364,3.2374,3.2368,3.2376,3.2379,3.2381,3.2389,3.2405,3.2415,3.243,3.2468,3.2469,3.2486,3.2491,3.2496,3.25,3.2521,3.2528,3.2447,3.2447,3.2447,0,0,3.233,3.2335,3.2348,3.2368,3.2374,3.2393,3.2367,3.2389,3.2403,3.2382,3.241,3.2412,3.242,3.2453,3.2468,3.2456,3.2523,3.2501,3.2505,3.2506,3.2525,3.2533,3.254,3.2449,3.2449,3.2449,0,0,3.2379,3.2385,3.2412,3.2419,3.2429,3.2427,3.2434,3.244,3.2441,3.2469,3.2454,3.247,3.2498,3.2505,3.2512,3.2565,3.2552,3.257,3.2601,3.2621,3.2627,3.2633,3.2652,3.2659,3.2574,3.2574,3.2574,0,3.2404,3.2434,3.2427,3.2451,3.246,3.2443,3.247,3.2477,3.2491,3.2497,3.2484,3.2519,3.2523,3.2558,3.2572,3.2578,3.2585,3.2569,3.2627,3.2633,3.2638,3.2656,3.2663,3.2576,3.2576,3.2576,3.2576,0,3.2465,3.2486,3.2507,3.2522,3.2534,3.2559,3.2555,3.2567,3.256,3.256,3.2589,3.2593,3.2609,3.2617,3.261,3.2651,3.2644,3.2629,3.2604,3.2648,3.2665,3.2672,3.2579,3.2579,3.2578,3.2578,0,0,3.2532,3.2544,3.2552,3.2559,3.2569,3.2585,3.2609,3.2626,3.2637,3.2647,3.2667,3.2691,3.2678,3.2686,3.268,3.2697,3.274,3.268,3.268,3.2691,3.2786,3.2797,3.2805,3.2731,3.2733,3.2734,3.2785,0,3.2582,3.2625,3.262,3.2661,3.268,3.2665,3.2686,3.2694,3.2695,3.2711,3.271,3.2728,3.2709,3.2714,3.2731,3.2731,3.2759,3.2727,3.2749,3.275,3.2748,3.2814,3.2826,3.2874,3.2792,3.2793,3.2794,0,3.2645,3.266,3.2703,3.2711,3.2719,3.2738,3.2753,3.2769,3.2778,3.2777,3.2787,3.2777,3.2801,3.2777,3.281,3.2788,3.2797,3.2799,3.28,3.2802,3.2775,3.2818,3.289,3.2897,3.2804,3.2803,3.2803,0,3.269,3.272,3.275,3.2756,3.2767,3.2781,3.2785,3.2793,3.2804,3.2817,3.2823,3.2838,3.2847,3.2858,3.2853,3.2836,3.2887,3.2862,3.2887,3.2887,3.2898,3.2897,3.2972,3.2904,3.2904,3.2903,3.2903,0,3.2746,3.2773,3.2771,3.2789,3.2819,3.2813,3.2842,3.2845,3.2852,3.287,3.2858,3.2875,3.2867,3.2884,3.288,3.2908,3.2911,3.2911,3.291,3.2912,3.2912,3.2918,3.2914,3.2905,3.2905,3.2905,3.2904,0,3.2801,3.28,3.2832,3.284,3.2842,3.2864,3.287,3.2887,3.2887,3.2911,3.2916,3.2915,3.2934,3.293,3.2951,3.2948,3.2983,3.2977,3.298,3.2979,3.3004,3.3002,3.3085,3.3096,3.302,3.3021,3.3022,0,3.2837,3.2858,3.2868,3.288,3.2887,3.2906,3.2917,3.2911,3.2923,3.2936,3.2951,3.297,3.2984,3.3015,3.3016,3.3031,3.3026,3.3054,3.3028,3.303,3.3027,3.3026,3.3028,3.3059,3.306,3.3061,3.3061,0,3.2901,3.29,3.2917,3.2934,3.2948,3.2961,3.2973,3.2983,3.2978,3.2992,3.3012,3.3024,3.3045,3.3063,3.3078,3.3082,3.3071,3.307,3.3076,3.3079,3.308,3.308,3.2995,3.3068,3.3067,3.3067,3.3066,3.3066,3.2947,3.2965,3.2976,3.2996,3.3004,3.3016,3.3032,3.3035,3.3052,3.307,3.3065,3.3088,3.3097,3.3116,3.3122,3.3139,3.3128,3.3138,3.314,3.3143,3.3146,3.3078,3.3142,3.3142,3.3141,3.3141,3.3141,0,3.3011,3.3017,3.3035,3.3053,3.3068,3.3058,3.307,3.3084,3.3104,3.3114,3.3129,3.3152,3.317,3.3172,3.3189,3.3202,3.3198,3.3207,3.3206,3.3207,3.3154,3.3147,3.3211,3.321,3.321,3.321,3.321,3.321,3.3046,3.3076,3.3076,3.3111,3.3116,3.314,3.3148,3.3158,3.3166,3.3193,3.3208,3.321,3.3217,3.3234,3.325,3.325,3.3257,3.3268,3.3267,3.3218,3.3211,3.3204,3.3197,3.327,3.327,3.3318,3.3318,3.3319]}]]